(29743) = 1997 NP11 = 1999 BM15

Discovered at Visnjan on 1999-01-26 by K. Korlevic.

Orbit

Orbit type: Main Belt

Note: WebGL enabled browser required.

epoch2024-03-31.0
epoch JD2460400.5
perihelion date2023-01-11.49872
perihelion JD2459955.99872
argument of perihelion (°)308.00837
ascending node (°)159.54464
inclination (°)14.01140
eccentricity0.1404109
perihelion distance (AU)2.1907155
Tisserand w.r.t. Jupiter3.4
ΔV w.r.t. Earth (km/sec)10.2
semimajor axis (AU)2.5485612
mean anomaly (°)107.67980
mean daily motion (°/day)0.24224860
aphelion distance (AU)2.906
period (years)4.07
P-vector [x]-0.30978068
P-vector [y]0.93049356
P-vector [z]0.19549340
Q-vector [x]-0.94703561
Q-vector [y]-0.32025654
Q-vector [z]0.02364946
absolute magnitude14.87
phase slope0.15
uncertainty0
referenceMPEC 2024-F28
observations used2384
oppositions21
arc length (days)10607
first opposition used1995
last opposition used2024
residual rms (arc-secs)0.58
perturbers coarse indicatorM-v
perturbers precise indicator003Ek
first observation date used1995-03-04.0
last observation date used2024-03-18.0
computer nameMPCLINUX
JD of orbit computation2456966.842793
perihelion JD uncertainty (days)1.2756E-04
argument of perihelion uncertainty (°)3.6393E-05
ascending node uncertainty (°)1.4155E-05
inclination uncertainty (°)9.1271E-06
eccentricity uncertainty 5.6087E-08
perihelion distance uncertainty (AU)1.4709E-07
Minimum Orbit Intersection Distances (in AU)
for orbit epoch: 2460400.5, reference: E2024-G51
Mercury1.88646
Venus1.49706
Earth1.23459
Mars0.61185
Jupiter2.23415
Saturn6.8699
Uranus16.0594
Neptune27.2386

Observations

2524 total observations over interval: 1995 03 04.47788 – 2024 03 18.355670
These data are available for download (format description).

Date (UT) J2000 RA J2000 Dec Magn Location Ref
1995 03 04.47788 12 35 27.30 +03 44 08.0 17.7 V 691 – Steward Observatory, Kitt Peak-Spacewatch MPS 5899
1995 03 04.50350 12 35 26.46 +03 44 26.2   691 – Steward Observatory, Kitt Peak-Spacewatch MPS 5899
1997 07 10.06743 01 08 59.08 +03 07 28.1 19.5 V 599 – Campo Imperatore-CINEOS MPS 4120
1997 07 10.08528 01 09 00.18 +03 07 29.2   599 – Campo Imperatore-CINEOS MPS 4120
1997 10 29.34940 01 01 47.85 -09 26 16.2 18.8 V 566 – Haleakala-NEAT/GEODSS MPS 4120
1997 10 29.35979 01 01 47.42 -09 26 20.1 19.1 V 566 – Haleakala-NEAT/GEODSS MPS 4120
1997 10 29.37053 01 01 46.95 -09 26 24.0 18.9 V 566 – Haleakala-NEAT/GEODSS MPS 4120
1999 01 13.50752 11 55 21.30 -00 51 34.1 19.2 R 699 – Lowell Observatory-LONEOS MPS 58519
1999 01 13.52280 11 55 21.74 -00 51 31.6   699 – Lowell Observatory-LONEOS MPS 58519
1999 01 13.53811 11 55 22.21 -00 51 30.4   699 – Lowell Observatory-LONEOS MPS 58519
1999 01 26.05971 11 59 54.54 -00 03 10.1 18.7   120 – Visnjan MPS 3704
1999 01 26.07086 11 59 54.49 -00 03 06.2 18.8   120 – Visnjan MPS 3704
1999 01 26.11602 11 59 55.02 -00 02 52.1   120 – Visnjan MPS 3704
1999 01 26.14589 11 59 55.31 -00 02 43.1   120 – Visnjan MPS 3704
1999 01 26.15738 11 59 55.34 -00 02 38.1   120 – Visnjan MPS 3704
1999 01 28.04131 12 00 13.91 +00 08 10.0 18.8   120 – Visnjan MPS 3704
1999 01 28.11388 12 00 14.31 +00 08 35.3   120 – Visnjan MPS 3704
1999 01 29.13358 12 00 21.57 +00 14 50.2 18.7   120 – Visnjan MPS 3704
1999 01 29.15569 12 00 21.76 +00 14 57.5   120 – Visnjan MPS 3704
1999 02 12.06758 11 59 04.32 +02 06 38.3 18.4   120 – Visnjan MPS 3866
1999 02 12.09388 11 59 03.62 +02 06 54.3   120 – Visnjan MPS 3866
1999 02 12.11825 11 59 03.35 +02 07 08.7   120 – Visnjan MPS 3866
1999 03 13.86370 11 41 21.49 +07 57 21.8 18.5   120 – Visnjan MPS 4153
1999 03 13.88233 11 41 20.64 +07 57 36.9   120 – Visnjan MPS 4153
1999 03 19.21130 11 37 15.72 +09 01 10.0 17.4 R 699 – Lowell Observatory-LONEOS MPS 69120
1999 03 19.23675 11 37 14.51 +09 01 28.0   699 – Lowell Observatory-LONEOS MPS 69120
1999 03 19.26223 11 37 13.30 +09 01 45.8   699 – Lowell Observatory-LONEOS MPS 69120
1999 03 23.19706 11 34 18.03 +09 45 59.9 17.1 R 699 – Lowell Observatory-LONEOS MPS 59454
1999 03 23.22253 11 34 16.84 +09 46 16.1   699 – Lowell Observatory-LONEOS MPS 59454
1999 03 23.24800 11 34 15.76 +09 46 34.7   699 – Lowell Observatory-LONEOS MPS 59454
1999 04 06.26789 11 25 31.29 +11 57 02.0 17.8 R 699 – Lowell Observatory-LONEOS MPS 4493
1999 04 06.28579 11 25 30.73 +11 57 11.2   699 – Lowell Observatory-LONEOS MPS 4493
1999 04 06.30362 11 25 30.18 +11 57 18.3   699 – Lowell Observatory-LONEOS MPS 4493
1999 04 12.12482 11 23 00.44 +12 36 44.1 18.5   704 – Lincoln Laboratory ETS, New Mexico MPS 4493
1999 04 12.14186 11 23 00.00 +12 36 50.2 19.3   704 – Lincoln Laboratory ETS, New Mexico MPS 4493
1999 04 12.15887 11 22 59.55 +12 36 54.8 19.2   704 – Lincoln Laboratory ETS, New Mexico MPS 4493
1999 04 12.17597 11 22 59.15 +12 37 01.7 18.7   704 – Lincoln Laboratory ETS, New Mexico MPS 4493
1999 04 12.19296 11 22 58.67 +12 37 08.1 18.7   704 – Lincoln Laboratory ETS, New Mexico MPS 4493
1999 04 18.17975 11 21 16.14 +13 07 56.1 18.4 R 703 – Catalina Sky Survey MPS 4493
1999 04 18.19777 11 21 15.84 +13 08 01.2 18.4 R 703 – Catalina Sky Survey MPS 4493
1999 04 18.21586 11 21 15.57 +13 08 06.0 18.2 R 703 – Catalina Sky Survey MPS 4493
1999 04 18.23399 11 21 15.42 +13 08 11.3 18.0 R 703 – Catalina Sky Survey MPS 4493
2001 07 19.46477 00 51 39.31 +01 59 26.0 19.2   644 – Palomar Mountain/NEAT MPS 32230
2001 07 19.47541 00 51 39.71 +01 59 25.4 19.1   644 – Palomar Mountain/NEAT MPS 32230
2001 07 19.48606 00 51 40.12 +01 59 24.9 18.9   644 – Palomar Mountain/NEAT MPS 32230
2001 08 25.32306 01 02 15.26 -00 49 12.2 19.1   704 – Lincoln Laboratory ETS, New Mexico MPS 33171
2001 08 25.33750 01 02 15.01 -00 49 17.6 19.0   704 – Lincoln Laboratory ETS, New Mexico MPS 33171
2001 08 25.35172 01 02 14.93 -00 49 23.6 18.8   704 – Lincoln Laboratory ETS, New Mexico MPS 33171
2001 08 25.36741 01 02 14.72 -00 49 31.8 19.2   704 – Lincoln Laboratory ETS, New Mexico MPS 33171
2001 08 25.38293 01 02 14.60 -00 49 39.8 19.2   704 – Lincoln Laboratory ETS, New Mexico MPS 33171
2001 09 11.29673 00 56 32.81 -03 30 27.5 18.7 R 699 – Lowell Observatory-LONEOS MPS 34084
2001 09 11.32018 00 56 32.04 -03 30 43.1   699 – Lowell Observatory-LONEOS MPS 34084
2001 09 11.34369 00 56 31.26 -03 30 58.1   699 – Lowell Observatory-LONEOS MPS 34084
2001 09 11.36725 00 56 30.43 -03 31 11.5   699 – Lowell Observatory-LONEOS MPS 34084
2001 09 12.39937 00 55 57.06 -03 42 13.7 18.9   704 – Lincoln Laboratory ETS, New Mexico MPS 34084
2001 09 12.41354 00 55 56.52 -03 42 22.4 19.0   704 – Lincoln Laboratory ETS, New Mexico MPS 34084
2001 09 12.42773 00 55 56.03 -03 42 31.0 19.0   704 – Lincoln Laboratory ETS, New Mexico MPS 34084
2001 09 12.44195 00 55 55.52 -03 42 40.2 19.0   704 – Lincoln Laboratory ETS, New Mexico MPS 34084
2001 09 12.45615 00 55 55.01 -03 42 50.1 18.6   704 – Lincoln Laboratory ETS, New Mexico MPS 34084
2001 09 18.36992 00 52 20.37 -04 47 22.7 17.6 R 699 – Lowell Observatory-LONEOS MPS 35460
2001 09 18.38879 00 52 19.63 -04 47 35.4   699 – Lowell Observatory-LONEOS MPS 35460
2001 09 18.40767 00 52 18.85 -04 47 48.4   699 – Lowell Observatory-LONEOS MPS 35460
2001 09 18.42661 00 52 17.97 -04 48 00.1   699 – Lowell Observatory-LONEOS MPS 35460
2001 09 25.26073 00 47 29.41 -06 03 43.2 19.0   704 – Lincoln Laboratory ETS, New Mexico MPS 35460
2001 09 25.27611 00 47 28.70 -06 03 54.0 19.1   704 – Lincoln Laboratory ETS, New Mexico MPS 35460
2001 09 25.29359 00 47 27.93 -06 04 04.5 18.7   704 – Lincoln Laboratory ETS, New Mexico MPS 35460
2001 09 25.30858 00 47 27.19 -06 04 14.4 19.0   704 – Lincoln Laboratory ETS, New Mexico MPS 35460
2001 09 25.32526 00 47 26.39 -06 04 26.2 18.9   704 – Lincoln Laboratory ETS, New Mexico MPS 35460
2001 09 26.24764 00 46 45.21 -06 14 34.5 18.5   704 – Lincoln Laboratory ETS, New Mexico MPS 35460
2001 09 26.26285 00 46 44.45 -06 14 44.3 18.4   704 – Lincoln Laboratory ETS, New Mexico MPS 35460
2001 09 26.27806 00 46 43.78 -06 14 54.6 18.4   704 – Lincoln Laboratory ETS, New Mexico MPS 35460
2001 09 26.29328 00 46 43.08 -06 15 04.5 18.7   704 – Lincoln Laboratory ETS, New Mexico MPS 35460
2001 09 26.30848 00 46 42.34 -06 15 14.7 18.6   704 – Lincoln Laboratory ETS, New Mexico MPS 35460
2001 10 08.35515 00 37 17.08 -08 20 29.6 18.1   644 – Palomar Mountain/NEAT MPS 38721
2001 10 08.37655 00 37 16.03 -08 20 42.1 18.8   644 – Palomar Mountain/NEAT MPS 38721
2001 10 08.39815 00 37 14.98 -08 20 54.5 18.6   644 – Palomar Mountain/NEAT MPS 38721
2001 10 11.25951 00 35 01.48 -08 47 37.6 18.0   704 – Lincoln Laboratory ETS, New Mexico MPS 38721
2001 10 11.27624 00 35 00.67 -08 47 46.8 18.2   704 – Lincoln Laboratory ETS, New Mexico MPS 38721
2001 10 11.29256 00 34 59.90 -08 47 55.4 17.9   704 – Lincoln Laboratory ETS, New Mexico MPS 38721
2001 10 11.30879 00 34 59.11 -08 48 04.1 18.3   704 – Lincoln Laboratory ETS, New Mexico MPS 38721
2001 10 11.32522 00 34 58.33 -08 48 13.3 18.3   704 – Lincoln Laboratory ETS, New Mexico MPS 38721
2001 10 15.25953 00 32 00.43 -09 22 17.5 18.0   644 – Palomar Mountain/NEAT MPS 40035
2001 10 15.27000 00 31 59.96 -09 22 22.6 17.8   644 – Palomar Mountain/NEAT MPS 40035
2001 10 15.28051 00 31 59.48 -09 22 27.8 18.0   644 – Palomar Mountain/NEAT MPS 40035
2001 10 19.19156 00 29 12.58 -09 52 53.8 18.2 R 699 – Lowell Observatory-LONEOS MPS 40035
2001 10 19.21511 00 29 11.60 -09 53 04.6   699 – Lowell Observatory-LONEOS MPS 40035
2001 10 19.23845 00 29 10.55 -09 53 14.5   699 – Lowell Observatory-LONEOS MPS 40035
2001 10 19.26180 00 29 09.56 -09 53 24.9   699 – Lowell Observatory-LONEOS MPS 40035
2001 10 20.17179 00 28 32.72 -09 59 57.8 18.3   704 – Lincoln Laboratory ETS, New Mexico MPS 40035
2001 10 20.18775 00 28 32.03 -10 00 04.7 18.5   704 – Lincoln Laboratory ETS, New Mexico MPS 40035
2001 10 20.20460 00 28 31.35 -10 00 11.8 18.4   704 – Lincoln Laboratory ETS, New Mexico MPS 40035
2001 10 20.22172 00 28 30.61 -10 00 18.5 18.4   704 – Lincoln Laboratory ETS, New Mexico MPS 40035
